Regional Weather Roundup
Issued by NWS

Home | Current Version | Previous Version | Graphics & Text | Print | Product List | Glossary On
Versions: 1 2 3 4 5 6 7 8 9 10 11 12 13 14 15 16 17 18 19 20 21 22 23 24 25 26 27
000
ASUS45 KTFX 241510
RWRMT
MONTANA REGIONAL WEATHER ROUNDUP
NATIONAL WEATHER SERVICE GREAT FALLS MT
800 AM MST FRI FEB 24 2017

NOTE: "FAIR" INDICATES FEW OR NO CLOUDS BELOW 12000 FEET WITH NO
SIGNIFICANT WEATHER AND/OR OBSTRUCTIONS TO VISIBILITY.

MTZ001>007-043-241600-
WEST OF THE DIVIDE

CITY           SKY/WX    TMP DP  RH WIND       PRES   REMARKS
KALISPELL      CLEAR      8   5  87 NW5       30.07R
MISSOULA       CLOUDY    26  17  68 N7        30.06R WCI  18
BUTTE          LGT SNOW  14  11  87 S5        29.92R FOG
MULLAN PASS    CLEAR      9   7  92 NW6       29.90S WCI  -1
ANACONDA         N/A     18  12  79 CALM      29.95R
DEER LODGE       N/A     19  18  93 CALM      29.99R
EUREKA           N/A     12   9  85 CALM      30.11R
HAMILTON         N/A     27  18  69 NW8       30.02R WCI  18
LIBBY            N/A      7   3  85 CALM      30.11R
PLAINS           N/A     10   4  77 CALM      30.11R VSB 0
RONAN            N/A     20  17  88 CALM      30.07R
$$

MTZ008-052>055-241600-
SOUTHWEST MONTANA

CITY           SKY/WX    TMP DP  RH WIND       PRES   REMARKS
BOZEMAN        LGT SNOW  23  20  88 SE3       29.96R FOG
DILLON         LGT SNOW  20  15  81 CALM      29.91R
W YELLOWSTONE  CLOUDY    12   9  85 CALM      29.85R FOG
ENNIS          CLOUDY    18  16  93 S5        29.95R FOG
THREE FORKS      N/A     22  -4  31 SW5       29.95R
TWIN BRIDGES     N/A     22  14  71 CALM      29.92R
$$

MTZ009-010-012-014-046-048-049-054-241600-
EAST SLOPES AND CENTRAL MONTANA

CITY           SKY/WX    TMP DP  RH WIND       PRES   REMARKS
CUT BANK       FOG       13   9  84 CALM      29.98R VSB 1/4
GREAT FALLS    CLOUDY    24  19  81 CALM      29.98R
MALMSTROM AFB  CLOUDY    24  23  96 NE3       30.00R
HELENA         CLOUDY    24  21  88 SW3       29.97R
AUGUSTA          N/A     18  17  97 CALM      29.94R
BOWMANS CRNR     N/A     18  17  95 W5        29.93R
CHOTEAU          N/A     16  14  93 CALM      29.99R
CONRAD           N/A     17  16  96 CALM      30.00S
POWER          MOCLDY    19  17  95 CALM      29.98R
RAYNESFORD     MOCLDY    17  14  89 CALM      29.98R
ULM            CLOUDY    25  20  83 MISG      29.99R
$$

MTZ011-013-016-021-045-047-050-051-241600-
NORTH CENTRAL MONTANA

CITY           SKY/WX    TMP DP  RH WIND       PRES   REMARKS
HAVRE          FOG       18  18 100 SW5       30.05R VSB 1/2
LEWISTOWN      CLOUDY    20  17  88 S6        29.96R FOG     WCI  12
N BAR RANCH    CLOUDY    21  19  93 SE6       29.97R FOG     WCI  14
CHINOOK          N/A    N/A N/A N/A E5        30.05R
DENTON           N/A     18  14  86 S20       29.96R WCI   1
FORT BENTON      N/A     27  23  86 MISG      30.04
GEYSER         CLOUDY    21  17  84 SW6       29.96R WCI  14
GRASS RANGE    LGT SNOW  23  23  99 NE3       29.95R
JUDITH GAP     LGT SNOW  18  17  93 SW13      29.94R WCI   5
ROY            MOCLDY    24  24  98 MISG      29.98R FOG
STANFORD       MOCLDY    21  16  83 CALM      29.95R
WINIFRED       SNOWSHWR  22  21  98 CALM      29.98R
$$

MTZ017>020-022>027-061-062-241600-
NORTHEAST MONTANA

CITY           SKY/WX    TMP DP  RH WIND       PRES   REMARKS
GLASGOW        CLOUDY    25  21  85 SE12      30.09R WCI  14
JORDAN           N/A     26  22  84 SE8       30.05R WCI  18
SIDNEY         CLOUDY    21  17  84 S5        30.16R
WOLF POINT     CLOUDY    26  20  77 E7        30.13S WCI  18
PLENTYWOOD       N/A     21  16  79 CALM      30.12S
SCOBEY           N/A     22  12  65 N2        30.07S
$$

MTZ028>42-056>058-241600-
SOUTHCENTRAL AND SOUTHEAST MONTANA

CITY           SKY/WX    TMP DP  RH WIND       PRES   REMARKS
BAKER          SUNNY     16   9  74 SE12      30.08R WCI   3
BILLINGS       LGT SNOW  25  23  92 NE9       29.97R FOG     WCI  15
LIVINGSTON     LGT SNOW  19  16  88 SW3       29.94R FOG
MILES CITY     CLOUDY    24  16  71 SE7       30.08R WCI  16
BIG TIMBER     CLEAR     19  19 100 CALM      29.97R FOG
EKALAKA          N/A     14   7  74 SE12      30.00R WCI   0
FORSYTH          N/A     27  25  93 E8        30.05R WCI  18
HARLOWTON      FLURRIES  20  19  95 SW3       29.96R
LAUREL           N/A     25  19  77 N3        29.95R
ROUNDUP          N/A     25  20  81 NE5       29.91R
$$

REGIONAL REPORTS...DAKOTAS

CITY           SKY/WX    TMP DP  RH WIND       PRES   REMARKS
WILLISTON      CLOUDY    20  15  81 CALM      30.16R
MINOT          SUNNY     22  11  62 NW5       30.15R
DICKINSON      CLOUDY     8   6  92 CALM      30.09R
BEACH            N/A    N/A N/A N/A MISG        N/A
CROSBY         CLOUDY    25  19  80 W7        30.16R WCI  17
TIOGA          CLOUDY    23  19  86 W5        30.14R
WATFORD CITY   CLOUDY    14  10  85 SW6       30.15R WCI   5
BISMARCK       PTSUNNY   21  15  78 W7        30.15S WCI  12
GRAND FORKS    CLOUDY    18   5  57 NE9       30.15S WCI   7
FARGO          CLOUDY    20  12  71 N17       30.10F WCI   5
BUFFALO SD       N/A     16  12  84 SE3       30.01R
RAPID CITY     CLOUDY    17  14  88 N7        30.07R WCI   8
$$

REGIONAL REPORTS...WYOMING/IDAHO/WASHINGTON

CITY           SKY/WX    TMP DP  RH WIND       PRES   REMARKS
GILLETTE       LGT SNOW  21  18  88 SE6       29.96R FOG     WCI  13
SHERIDAN       CLOUDY    21  15  78 SE10      29.96R WCI  10
BUFFALO WY     LGT SNOW  20  15  81 S7        29.92R WCI  11
CODY           FLURRIES  17  13  84 SW3       29.92R
YELLOWSTONE LA   N/A      5   2  87 CALM      29.82R
IDAHO FALLS    LGT SNOW  19  18  95 S22       29.92R VSB 1   WCI   2
SALMON         CLOUDY    25  19  80 CALM      29.96R
SPOKANE        PTCLDY    20  17  88 SE3       30.10R
$$

REGIONAL REPORTS...ALBERTA

CITY           SKY/WX    TMP DP  RH WIND       PRES   REMARKS
EDMONTON       CLOUDY    16  12  86 N13       30.14R WCI   2
CALGARY        LGT SNOW  19  18  93 N7        30.01R WCI  10
LETHBRIDGE     PTCLDY    12  10  92 W9        30.03R WCI   0
MEDICINE HAT   LGT SNOW  25  21  86 NE2       30.06R FOG
WATERTON GATE    N/A     10   1  67 N2          N/A
CARDSTON         N/A      3   1  92 S3          N/A
MILK RIVER       N/A     16  14  93 W8          N/A  WCI   5
$$

REGIONAL REPORTS...SASKATCHEWAN

CITY           SKY/WX    TMP DP  RH WIND       PRES   REMARKS
SWIFT CURRENT  FLURRIES  23  21  93 S9        30.03R WCI  13
REGINA         CLOUDY    19  16  86 SW3       30.10S
SASKATOON      MOCLDY    14  12  92 E2        30.12S
CYPRESS HILLS    N/A     19  18  93 W3          N/A
VAL MARIE        N/A     25  21  86 S6          N/A  WCI  18
ROCKGLEN         N/A     19  18  93 S9          N/A  WCI   9
ASSINIBOIA       N/A     16  14  93 N8          N/A  WCI   5
$$




USA.gov is the U.S. government's official web portal to all federal, state and local government web resources and services.